Hourly Weather Barmotino

Today, 19 April, Monday

Time Temperature Precipitation Wind Pressure Humidity
00:00 +11°C° 0 mm 4 mps 755 mmHg 79%
01:00 +11°C° 0 mm 4 mps 755 mmHg 77%
02:00 +9°C° 0 mm 5 mps 756 mmHg 74%
03:00 +9°C° 0 mm 6 mps 756 mmHg 69%
04:00 +8°C° 0.2 mm 6 mps 756 mmHg 73%
05:00 +7°C° 0.2 mm 6 mps 756 mmHg 77%
06:00 +6°C° 0.2 mm 7 mps 756 mmHg 80%
07:00 +6°C° 0.3 mm 7 mps 757 mmHg 80%
08:00 +7°C° 0.3 mm 6 mps 757 mmHg 80%
09:00 +7°C° 0 mm 6 mps 757 mmHg 79%
10:00 +8°C° 0 mm 7 mps 757 mmHg 78%
11:00 +9°C° 0 mm 7 mps 757 mmHg 76%
12:00 +10°C° 0 mm 7 mps 757 mmHg 75%
13:00 +10°C° 0 mm 8 mps 757 mmHg 75%
14:00 +9°C° 0 mm 8 mps 757 mmHg 75%
15:00 +9°C° 0 mm 8 mps 757 mmHg 75%
16:00 +7°C° 0.1 mm 8 mps 757 mmHg 76%
17:00 +6°C° 0.1 mm 9 mps 758 mmHg 77%
18:00 +6°C° 0.1 mm 9 mps 758 mmHg 78%
19:00 +5°C° 0.4 mm 9 mps 758 mmHg 80%
20:00 +3°C° 0.4 mm 9 mps 759 mmHg 81%
21:00 +2°C° 0.4 mm 8 mps 759 mmHg 83%
22:00 +2°C° 0.4 mm 8 mps 759 mmHg 82%
23:00 +2°C° 0.4 mm 9 mps 760 mmHg 80%

Tomorrow, 20 April, Tuesday

Time Temperature Precipitation Wind Pressure Humidity
00:00 +2°C° 0.4 mm 9 mps 760 mmHg 78%
01:00 +1°C° 0.2 mm 9 mps 760 mmHg 77%
02:00 +1°C° 0.2 mm 9 mps 760 mmHg 77%
03:00 +1°C° 0.2 mm 8 mps 761 mmHg 76%
04:00 +1°C° 0 mm 9 mps 761 mmHg 73%
05:00 +1°C° 0 mm 9 mps 761 mmHg 70%
06:00 +1°C° 0 mm 9 mps 761 mmHg 67%
07:00 +1°C° 0 mm 9 mps 761 mmHg 64%
08:00 +2°C° 0 mm 9 mps 762 mmHg 61%
09:00 +2°C° 0 mm 9 mps 762 mmHg 59%
10:00 +5°C° 0 mm 10 mps 762 mmHg 56%
11:00 +6°C° 0 mm 10 mps 762 mmHg 54%
12:00 +7°C° 0 mm 10 mps 762 mmHg 51%
13:00 +8°C° 0 mm 10 mps 762 mmHg 51%
14:00 +8°C° 0 mm 9 mps 761 mmHg 50%
15:00 +10°C° 0 mm 9 mps 761 mmHg 50%
16:00 +8°C° 0 mm 9 mps 761 mmHg 50%
17:00 +7°C° 0 mm 9 mps 761 mmHg 51%
18:00 +7°C° 0 mm 9 mps 761 mmHg 51%
19:00 +6°C° 0 mm 9 mps 761 mmHg 50%
20:00 +5°C° 0 mm 9 mps 761 mmHg 50%
21:00 +5°C° 0 mm 9 mps 761 mmHg 49%
22:00 +3°C° 0 mm 9 mps 761 mmHg 50%
23:00 +3°C° 0 mm 9 mps 761 mmHg 50%

Day after tomorrow, 21 April, Wednesday

Time Temperature Precipitation Wind Pressure Humidity
00:00 +2°C° 0 mm 9 mps 760 mmHg 51%
01:00 +2°C° 0.1 mm 9 mps 760 mmHg 53%
02:00 +2°C° 0.1 mm 9 mps 760 mmHg 54%
03:00 +2°C° 0.1 mm 9 mps 760 mmHg 55%
04:00 +1°C° 0.4 mm 9 mps 760 mmHg 60%
05:00 +1°C° 0.4 mm 10 mps 760 mmHg 64%
06:00 +1°C° 0.4 mm 10 mps 759 mmHg 68%
07:00 0°C° 1.9 mm 10 mps 760 mmHg 73%
08:00 0°C° 1.9 mm 9 mps 760 mmHg 77%
09:00 0°C° 1.9 mm 9 mps 761 mmHg 82%
10:00 0°C° 1.1 mm 9 mps 761 mmHg 84%
11:00 0°C° 1.1 mm 9 mps 761 mmHg 86%
12:00 0°C° 1.1 mm 8 mps 761 mmHg 88%
13:00 0°C° 0.6 mm 8 mps 761 mmHg 89%
14:00 0°C° 0.6 mm 8 mps 761 mmHg 90%
15:00 0°C° 0.6 mm 8 mps 761 mmHg 91%
16:00 0°C° 0.2 mm 8 mps 761 mmHg 91%
17:00 0°C° 0.2 mm 7 mps 761 mmHg 91%
18:00 +2°C° 0.2 mm 7 mps 761 mmHg 92%
19:00 +2°C° 0.4 mm 7 mps 761 mmHg 92%
20:00 +2°C° 0.4 mm 6 mps 761 mmHg 93%
21:00 +2°C° 0.4 mm 6 mps 761 mmHg 93%
22:00 +3°C° 0.6 mm 6 mps 761 mmHg 93%
23:00 +3°C° 0.6 mm 6 mps 761 mmHg 94%

22 April, Thursday

Time Temperature Precipitation Wind Pressure Humidity
00:00 +3°C° 0.6 mm 6 mps 761 mmHg 94%
01:00 +3°C° 0.3 mm 5 mps 761 mmHg 94%
02:00 +3°C° 0.3 mm 5 mps 761 mmHg 95%
03:00 +3°C° 0.3 mm 5 mps 761 mmHg 95%
04:00 +4°C° 0.1 mm 4 mps 762 mmHg 96%
05:00 +4°C° 0.1 mm 4 mps 762 mmHg 96%
06:00 +4°C° 0.1 mm 4 mps 762 mmHg 97%
07:00 +5°C° 0 mm 4 mps 762 mmHg 94%
08:00 +5°C° 0 mm 4 mps 762 mmHg 90%
09:00 +6°C° 0 mm 4 mps 763 mmHg 87%
10:00 +7°C° 0 mm 4 mps 763 mmHg 80%
11:00 +8°C° 0 mm 5 mps 763 mmHg 72%
12:00 +9°C° 0 mm 5 mps 763 mmHg 64%
13:00 +9°C° 0 mm 5 mps 763 mmHg 65%
14:00 +9°C° 0 mm 6 mps 763 mmHg 67%
15:00 +8°C° 0 mm 6 mps 763 mmHg 68%
16:00 +7°C° 0 mm 5 mps 763 mmHg 73%
17:00 +6°C° 0 mm 5 mps 763 mmHg 79%
18:00 +5°C° 0 mm 5 mps 763 mmHg 84%
19:00 +5°C° 0 mm 4 mps 763 mmHg 87%
20:00 +5°C° 0 mm 4 mps 763 mmHg 90%
21:00 +5°C° 0 mm 3 mps 763 mmHg 92%
22:00 +5°C° 0 mm 3 mps 763 mmHg 93%
23:00 +5°C° 0 mm 3 mps 763 mmHg 93%

23 April, Friday

Time Temperature Precipitation Wind Pressure Humidity
00:00 +5°C° 0 mm 3 mps 763 mmHg 94%
01:00 +6°C° 0 mm 2 mps 763 mmHg 94%
02:00 +6°C° 0 mm 2 mps 762 mmHg 94%
03:00 +6°C° 0 mm 2 mps 762 mmHg 95%
04:00 +6°C° 0 mm 2 mps 762 mmHg 94%
05:00 +6°C° 0 mm 2 mps 762 mmHg 94%
06:00 +5°C° 0 mm 3 mps 762 mmHg 93%
07:00 +7°C° 0 mm 3 mps 762 mmHg 89%
08:00 +7°C° 0 mm 4 mps 762 mmHg 84%
09:00 +7°C° 0 mm 4 mps 761 mmHg 79%
10:00 +8°C° 0 mm 4 mps 761 mmHg 76%
11:00 +8°C° 0 mm 4 mps 761 mmHg 74%
12:00 +10°C° 0 mm 4 mps 761 mmHg 71%
13:00 +10°C° 0 mm 4 mps 760 mmHg 69%
14:00 +11°C° 0 mm 4 mps 760 mmHg 68%
15:00 +11°C° 0 mm 4 mps 760 mmHg 66%
16:00 +11°C° 0 mm 4 mps 760 mmHg 69%
17:00 +10°C° 0 mm 4 mps 759 mmHg 71%
18:00 +10°C° 0 mm 3 mps 759 mmHg 74%
19:00 +9°C° 0 mm 3 mps 759 mmHg 78%
20:00 +8°C° 0 mm 3 mps 759 mmHg 82%
21:00 +8°C° 0 mm 2 mps 759 mmHg 86%
22:00 +7°C° 0 mm 2 mps 758 mmHg 88%
23:00 +7°C° 0 mm 2 mps 758 mmHg 90%

24 April, Saturday

Time Temperature Precipitation Wind Pressure Humidity
00:00 +8°C° 0 mm 1 mps 758 mmHg 92%
01:00 +8°C° 0 mm 1 mps 758 mmHg 92%
02:00 +7°C° 0 mm 2 mps 758 mmHg 92%
03:00 +7°C° 0 mm 2 mps 757 mmHg 92%
04:00 +7°C° 0 mm 2 mps 758 mmHg 91%
05:00 +7°C° 0 mm 2 mps 758 mmHg 90%
06:00 +7°C° 0 mm 2 mps 758 mmHg 89%
07:00 +8°C° 0 mm 2 mps 758 mmHg 85%
08:00 +9°C° 0 mm 2 mps 758 mmHg 81%
09:00 +9°C° 0 mm 2 mps 758 mmHg 78%
10:00 +10°C° 0 mm 2 mps 758 mmHg 73%
11:00 +11°C° 0 mm 3 mps 758 mmHg 68%
12:00 +12°C° 0 mm 3 mps 758 mmHg 63%
13:00 +13°C° 0 mm 3 mps 758 mmHg 59%
14:00 +14°C° 0 mm 3 mps 758 mmHg 55%
15:00 +14°C° 0 mm 3 mps 757 mmHg 51%
16:00 +14°C° 0 mm 3 mps 758 mmHg 55%
17:00 +14°C° 0 mm 2 mps 758 mmHg 59%
18:00 +14°C° 0 mm 2 mps 758 mmHg 63%
19:00 +13°C° 0 mm 2 mps 758 mmHg 66%
20:00 +12°C° 0 mm 2 mps 758 mmHg 70%
21:00 +10°C° 0 mm 2 mps 758 mmHg 74%
22:00 +9°C° 0 mm 2 mps 758 mmHg 75%
23:00 +9°C° 0 mm 2 mps 758 mmHg 75%
Show more